[TLELIST] Archives

 

[TLELIST] Current TLEs

August 18th 2025 PDT

0 HST 1 20580U 90037B 25229.99494465 .00005450 00000-0 19821-3 0 9992 2 20580 28.4692 345.7803 0002448 54.4458 305.6364 15.25933490742399 0 ISS (ZARYA) 1 25544U 98067A 25229.84947715 .00009988 00000-0 18281-3 0 9992 2 25544 51.6374 1.4347 0003433 229.7703 266.4657 15.49991102524727 0 CXO 1 25867U 99040B 25232.90672370 .00000821 00000-0 00000-0 0 9999 2 25867 50.8400 126.8751 8325734 310.2369 0.5086 0.37803482 16183 ...Continue Reading

[TLELIST] Current TLEs

August 18th 2025 PDT

0 HST 1 20580U 90037B 25229.99494465 .00005450 00000-0 19821-3 0 9992 2 20580 28.4692 345.7803 0002448 54.4458 305.6364 15.25933490742399 0 ISS (ZARYA) 1 25544U 98067A 25229.84947715 .00009988 00000-0 18281-3 0 9992 2 25544 51.6374 1.4347 0003433 229.7703 266.4657 15.49991102524727 0 CXO 1 25867U 99040B 25232.90672370 .00000821 00000-0 00000-0 0 9999 2 25867 50.8400 126.8751 8325734 310.2369 0.5086 0.37803482 16183 ...Continue Reading

[TLELIST] Current TLEs

August 17th 2025 PDT

0 HST 1 20580U 90037B 25228.68689532 .00005621 00000-0 20476-3 0 9996 2 20580 28.4693 354.6545 0002394 42.2153 317.8626 15.25920248741931 0 ISS (ZARYA) 1 25544U 98067A 25229.18034946 .00009619 00000-0 17645-3 0 9996 2 25544 51.6356 4.7550 0003499 229.5075 130.5609 15.49975761524621 0 CXO 1 25867U 99040B 25230.26169609 .00000813 00000-0 00000-0 0 9993 2 25867 50.7837 126.9913 8330705 310.1879 0.5139 0.37803569 16170 ...Continue Reading

[TLELIST] Current TLEs

August 16th 2025 PDT

0 HST 1 20580U 90037B 25227.64044786 .00005974 00000-0 21819-3 0 9990 2 20580 28.4692 1.7531 0002392 31.1164 328.9572 15.25908777741770 0 ISS (ZARYA) 1 25544U 98067A 25227.91641179 .00011725 00000-0 21345-3 0 9990 2 25544 51.6370 11.0151 0003440 221.9962 280.8086 15.49953337524423 0 CXO 1 25867U 99040B 25230.26169609 .00000813 00000-0 00000-0 0 9993 2 25867 50.7837 126.9913 8330705 310.1879 0.5139 0.37803569 16170 ...Continue Reading

[TLELIST] Current TLEs

August 16th 2025 PDT

0 HST 1 20580U 90037B 25227.64044786 .00005974 00000-0 21819-3 0 9990 2 20580 28.4692 1.7531 0002392 31.1164 328.9572 15.25908777741770 0 ISS (ZARYA) 1 25544U 98067A 25227.91641179 .00011725 00000-0 21345-3 0 9990 2 25544 51.6370 11.0151 0003440 221.9962 280.8086 15.49953337524423 0 CXO 1 25867U 99040B 25230.26169609 .00000813 00000-0 00000-0 0 9993 2 25867 50.7837 126.9913 8330705 310.1879 0.5139 0.37803569 16170 ...Continue Reading

[TLELIST] Current TLEs

August 15th 2025 PDT

0 HST 1 20580U 90037B 25226.72479950 .00006356 00000-0 23273-3 0 9994 2 20580 28.4693 7.9649 0002314 22.9379 337.1318 15.25898359741638 0 ISS (ZARYA) 1 25544U 98067A 25226.79475703 .00009674 00000-0 17771-3 0 9991 2 25544 51.6352 16.5741 0003337 217.6067 142.4689 15.49926541524251 0 CXO 1 25867U 99040B 25227.61706370 .00000826 00000-0 00000-0 0 9994 2 25867 50.7188 127.1231 8335202 310.1269 0.6021 0.37806349 16175 ...Continue Reading

[TLELIST] Current TLEs

August 14th 2025 PDT

0 HST 1 20580U 90037B 25225.74374017 .00005950 00000-0 21745-3 0 9994 2 20580 28.4692 14.6204 0002219 13.8902 346.1753 15.25885833741483 0 ISS (ZARYA) 1 25544U 98067A 25225.82774622 .00008872 00000-0 16040-3 0 9993 2 25544 51.6356 21.3666 0001267 190.3224 169.7740 15.50502248524107 0 CXO 1 25867U 99040B 25227.61706370 .00000826 00000-0 00000-0 0 9994 2 25867 50.7188 127.1231 8335202 310.1269 0.6021 0.37806349 16175 ...Continue Reading

[TLELIST] Current TLEs

August 14th 2025 PDT

0 HST 1 20580U 90037B 25225.74374017 .00005950 00000-0 21745-3 0 9994 2 20580 28.4692 14.6204 0002219 13.8902 346.1753 15.25885833741483 0 ISS (ZARYA) 1 25544U 98067A 25225.82774622 .00008872 00000-0 16040-3 0 9993 2 25544 51.6356 21.3666 0001267 190.3224 169.7740 15.50502248524107 0 CXO 1 25867U 99040B 25227.61706370 .00000826 00000-0 00000-0 0 9994 2 25867 50.7188 127.1231 8335202 310.1269 0.6021 0.37806349 16175 ...Continue Reading

[TLELIST] Current TLEs

August 13th 2025 PDT

0 HST 1 20580U 90037B 25224.76267362 .00006749 00000-0 24781-3 0 9999 2 20580 28.4693 21.2761 0002128 4.4339 355.6274 15.25875171741336 0 ISS (ZARYA) 1 25544U 98067A 25224.47423135 .00010254 00000-0 18430-3 0 9995 2 25544 51.6349 28.0780 0001172 181.8871 178.2114 15.50477111523893 0 CXO 1 25867U 99040B 25224.97414867 .00000909 00000-0 00000+0 0 9998 2 25867 50.6254 127.3019 8337354 310.0458 0.8890 0.37804935 27316 ...Continue Reading

[TLELIST] Current TLEs

August 12th 2025 PDT

0 HST 1 20580U 90037B 25223.78159918 .00006587 00000-0 24175-3 0 9994 2 20580 28.4691 27.9314 0002043 354.3077 5.7494 15.25862787741182 0 ISS (ZARYA) 1 25544U 98067A 25224.15196245 .00009249 00000-0 16708-3 0 9997 2 25544 51.6349 29.6760 0001148 180.0973 180.0016 15.50469254523841 0 CXO 1 25867U 99040B 25224.97414867 .00000909 00000-0 00000+0 0 9998 2 25867 50.6254 127.3019 8337354 310.0458 0.8890 0.37804935 27316 ...Continue Reading
  • This mailing list is a public mailing list - anyone may join or leave, at any time.
  • This mailing list is announce-only.

International Space Station (ISS) / Hubble Space Telescope (HST) / Chandra X-Ray Observatory Orbital Data via EMAIL

Privacy Policy:

Private list